Location: Balaclava NSW 2575, Australia
(34.4510°S, 150.4953°E)
Time: 01:04:17
(UTC+10:00)

X-37B - Pass Details

Date: 04 August 2021
Orbit: 381 x 393 km, 45.0° (Epoch: 29 August)

Event Time Altitude Azimuth Distance (km) Brightness Sun altitude
Rises 19:19:37 0° 233° (SW) 2,313 5.2 -24.9°
Reaches altitude 10° 19:21:49 10° 224° (SW) 1,450 3.9 -25.4°
Enters shadow 19:22:31 15° 219° (SW) 1,191 3.4 -25.5°
